| time (UTC) | temp C | wind direction | speed KPH | gust KPH | rain 1hr cm | rain 24hr cm | rain mn cm | humidity % | barometer mb |
| 20260502191048 | 17 | 193 | 3.2 | 6.4 | 0.00 | 0.00 | 0.00 | 47 | 1020.9 |
| 20260502191016 | 17 | 193 | 3.2 | 6.4 | 0.00 | 0.00 | 0.00 | 47 | 1020.9 |
| 20260502190535 | 17 | 190 | 3.2 | 4.8 | 0.00 | 0.00 | 0.00 | 46 | 1020.9 |
| 20260502190033 | 17 | 202 | 1.6 | 3.2 | 0.00 | 0.00 | 0.00 | 46 | 1020.8 |
| 20260502185531 | 17 | 213 | 0.0 | 1.6 | 0.00 | 0.00 | 0.00 | 45 | 1020.8 |
| 20260502185029 | 17 | 225 | 0.0 | 1.6 | 0.00 | 0.00 | 0.00 | 45 | 1020.7 |
| 20260502184528 | 18 | 210 | 0.0 | 1.6 | 0.00 | 0.00 | 0.00 | 44 | 1020.7 |
| 20260502184027 | 18 | 210 | 0.0 | 1.6 | 0.00 | 0.00 | 0.00 | 44 | 1020.8 |
| 20260502183524 | 18 | 232 | 0.0 | 1.6 | 0.00 | 0.00 | 0.00 | 43 | 1020.6 |
| 20260502183022 | 18 | 236 | 0.0 | 1.6 | 0.00 | 0.00 | 0.00 | 42 | 1020.7 |
| 20260502182520 | 18 | 239 | 0.0 | 1.6 | 0.00 | 0.00 | 0.00 | 42 | 1020.7 |
| 20260502182050 | 19 | 237 | 0.0 | 1.6 | 0.00 | 0.00 | 0.00 | 41 | 1020.7 |
| 20260502182018 | 19 | 237 | 0.0 | 1.6 | 0.00 | 0.00 | 0.00 | 41 | 1020.7 |
| 20260502181516 | 19 | 242 | 0.0 | 3.2 | 0.00 | 0.00 | 0.00 | 41 | 1020.5 |
| 20260502181034 | 20 | 235 | 0.0 | 3.2 | 0.00 | 0.00 | 0.00 | 40 | 1020.6 |
| 20260502180532 | 20 | 219 | 0.0 | 1.6 | 0.00 | 0.00 | 0.00 | 39 | 1020.6 |
| 20260502164018 | 22 | 245 | 1.6 | 4.8 | 0.00 | 0.00 | 0.00 | 33 | 1020.8 |
| 20260502163516 | 22 | 273 | 3.2 | 4.8 | 0.00 | 0.00 | 0.00 | 33 | 1020.7 |
| 20260502163034 | 22 | 270 | 1.6 | 9.7 | 0.00 | 0.00 | 0.00 | 33 | 1020.8 |
| 20260502162532 | 22 | 245 | 3.2 | 9.7 | 0.00 | 0.00 | 0.00 | 33 | 1020.8 |
| 20260502162030 | 23 | 237 | 1.6 | 9.7 | 0.00 | 0.00 | 0.00 | 32 | 1020.9 |
| 20260502161528 | 23 | 248 | 1.6 | 11.3 | 0.00 | 0.00 | 0.00 | 33 | 1021.0 |
| 20260502161027 | 23 | 248 | 1.6 | 4.8 | 0.00 | 0.00 | 0.00 | 32 | 1021.0 |
| 20260502160525 | 23 | 247 | 3.2 | 11.3 | 0.00 | 0.00 | 0.00 | 33 | 1021.1 |
| 20260502152023 | 23 | 325 | 1.6 | 4.8 | 0.00 | 0.00 | 0.00 | 31 | 1021.5 |
| 20260502151520 | 23 | 297 | 1.6 | 4.8 | 0.00 | 0.00 | 0.00 | 31 | 1021.5 |
| 20260502151018 | 23 | 281 | 3.2 | 9.7 | 0.00 | 0.00 | 0.00 | 31 | 1021.5 |
| 20260502150516 | 23 | 331 | 3.2 | 11.3 | 0.00 | 0.00 | 0.00 | 30 | 1021.5 |
| 20260502130518 | 22 | 276 | 6.4 | 12.9 | 0.00 | 0.00 | 0.00 | 33 | 1022.8 |
| 20260502123525 | 22 | 322 | 3.2 | 6.4 | 0.00 | 0.00 | 0.00 | 32 | 1023.3 |
| 20260502123022 | 22 | 284 | 3.2 | 9.7 | 0.00 | 0.00 | 0.00 | 33 | 1023.4 |
| 20260502122522 | 22 | 298 | 1.6 | 9.7 | 0.00 | 0.00 | 0.00 | 34 | 1023.4 |
| 20260502122018 | 22 | 286 | 3.2 | 11.3 | 0.00 | 0.00 | 0.00 | 34 | 1023.6 |
| 20260502121516 | 22 | 317 | 1.6 | 9.7 | 0.00 | 0.00 | 0.00 | 33 | 1023.5 |
| 20260502121034 | 22 | 3 | 4.8 | 11.3 | 0.00 | 0.00 | 0.00 | 32 | 1023.7 |
| 20260502120532 | 22 | 308 | 4.8 | 12.9 | 0.00 | 0.00 | 0.00 | 34 | 1023.7 |
| 20260502115527 | 21 | 291 | 8.0 | 16.1 | 0.00 | 0.00 | 0.00 | 34 | 1023.9 |
| 20260502115025 | 21 | 290 | 3.2 | 9.7 | 0.00 | 0.00 | 0.00 | 34 | 1023.9 |
| 20260502114524 | 21 | 117 | 1.6 | 4.8 | 0.00 | 0.00 | 0.00 | 35 | 1024.0 |
| 20260502114022 | 21 | 99 | 3.2 | 9.7 | 0.00 | 0.00 | 0.00 | 34 | 1024.0 |
| 20260502113520 | 21 | 109 | 3.2 | 11.3 | 0.00 | 0.00 | 0.00 | 34 | 1024.2 |
| 20260502113018 | 21 | 76 | 3.2 | 6.4 | 0.00 | 0.00 | 0.00 | 35 | 1024.1 |
| 20260502112535 | 21 | 326 | 4.8 | 12.9 | 0.00 | 0.00 | 0.00 | 34 | 1024.2 |
| 20260502112033 | 21 | 343 | 4.8 | 11.3 | 0.00 | 0.00 | 0.00 | 35 | 1024.1 |
| 20260502111532 | 21 | 77 | 1.6 | 4.8 | 0.00 | 0.00 | 0.00 | 35 | 1024.2 |
| 20260502111029 | 21 | 350 | 1.6 | 6.4 | 0.00 | 0.00 | 0.00 | 35 | 1024.3 |
| 20260502110527 | 21 | 317 | 4.8 | 12.9 | 0.00 | 0.00 | 0.00 | 35 | 1024.4 |
| 20260502110025 | 21 | 299 | 3.2 | 11.3 | 0.00 | 0.00 | 0.00 | 36 | 1024.3 |
| 20260502105523 | 21 | 331 | 6.4 | 12.9 | 0.00 | 0.00 | 0.00 | 35 | 1024.4 |
| 20260502105021 | 21 | 290 | 3.2 | 9.7 | 0.00 | 0.00 | 0.00 | 37 | 1024.5 |
| 20260502104519 | 21 | 230 | 3.2 | 9.7 | 0.00 | 0.00 | 0.00 | 37 | 1024.6 |
| 20260502104050 | 21 | 121 | 4.8 | 9.7 | 0.00 | 0.00 | 0.00 | 37 | 1024.6 |
| 20260502104017 | 21 | 121 | 4.8 | 9.7 | 0.00 | 0.00 | 0.00 | 37 | 1024.6 |
| 20260502103534 | 21 | 111 | 4.8 | 9.7 | 0.00 | 0.00 | 0.00 | 38 | 1024.7 |
| 20260502103032 | 21 | 152 | 3.2 | 9.7 | 0.00 | 0.00 | 0.00 | 38 | 1024.7 |
| 20260502102529 | 21 | 187 | 3.2 | 11.3 | 0.00 | 0.00 | 0.00 | 39 | 1024.7 |
| 20260502102028 | 21 | 154 | 4.8 | 12.9 | 0.00 | 0.00 | 0.00 | 40 | 1024.7 |
| 20260502101526 | 21 | 155 | 1.6 | 6.4 | 0.00 | 0.00 | 0.00 | 39 | 1024.7 |
| 20260502101024 | 21 | 24 | 3.2 | 9.7 | 0.00 | 0.00 | 0.00 | 38 | 1024.9 |
| 20260502100522 | 21 | 259 | 1.6 | 6.4 | 0.00 | 0.00 | 0.00 | 39 | 1025.0 |
| 20260502091524 | 20 | 285 | 3.2 | 12.9 | 0.00 | 0.00 | 0.00 | 42 | 1025.3 |
| 20260502091021 | 20 | 255 | 4.8 | 11.3 | 0.00 | 0.00 | 0.00 | 42 | 1025.4 |
| 20260502090520 | 20 | 225 | 3.2 | 11.3 | 0.00 | 0.00 | 0.00 | 43 | 1025.4 |
| 20260502071517 | 15 | 254 | 3.2 | 9.7 | 0.00 | 0.00 | 0.00 | 56 | 1025.8 |
| 20260502071036 | 15 | 281 | 3.2 | 11.3 | 0.00 | 0.00 | 0.00 | 57 | 1025.7 |
| 20260502070534 | 15 | 226 | 1.6 | 4.8 | 0.00 | 0.00 | 0.00 | 57 | 1025.8 |
| 20260502070031 | 14 | 283 | 4.8 | 11.3 | 0.00 | 0.00 | 0.00 | 56 | 1025.8 |
| 20260502065529 | 14 | 273 | 3.2 | 9.7 | 0.00 | 0.00 | 0.00 | 59 | 1025.8 |
| 20260502065027 | 13 | 270 | 1.6 | 6.4 | 0.00 | 0.00 | 0.00 | 61 | 1025.9 |
| 20260502064526 | 13 | 237 | 1.6 | 6.4 | 0.00 | 0.00 | 0.00 | 61 | 1025.8 |
| 20260502064024 | 13 | 269 | 1.6 | 6.4 | 0.00 | 0.00 | 0.00 | 62 | 1025.9 |
| 20260502063522 | 13 | 263 | 1.6 | 4.8 | 0.00 | 0.00 | 0.00 | 62 | 1025.9 |
| 20260502063020 | 12 | 272 | 1.6 | 4.8 | 0.00 | 0.00 | 0.00 | 63 | 1025.9 |
| 20260502062517 | 12 | 277 | 3.2 | 9.7 | 0.00 | 0.00 | 0.00 | 64 | 1025.9 |
| 20260502062050 | 12 | 277 | 3.2 | 9.7 | 0.00 | 0.00 | 0.00 | 65 | 1025.9 |
| 20260502062015 | 12 | 277 | 3.2 | 9.7 | 0.00 | 0.00 | 0.00 | 65 | 1025.9 |
| 20260502061534 | 11 | 269 | 1.6 | 6.4 | 0.00 | 0.00 | 0.00 | 66 | 1026.0 |
| 20260502061032 | 11 | 285 | 1.6 | 4.8 | 0.00 | 0.00 | 0.00 | 68 | 1025.9 |
| 20260502060530 | 11 | 224 | 0.0 | 3.2 | 0.00 | 0.00 | 0.00 | 69 | 1025.8 |
| 20260502060028 | 10 | 297 | 0.0 | 1.6 | 0.00 | 0.00 | 0.00 | 70 | 1025.9 |
| 20260502055526 | 10 | 0.0 | 0.0 | 0.00 | 0.00 | 0.00 | 70 | 1025.8 | |
| 20260502055024 | 10 | 0.0 | 0.0 | 0.00 | 0.00 | 0.00 | 71 | 1025.9 | |
| 20260502054523 | 9 | 276 | 0.0 | 4.8 | 0.00 | 0.00 | 0.00 | 72 | 1025.8 |
| 20260502054020 | 9 | 0.0 | 0.0 | 0.00 | 0.00 | 0.00 | 72 | 1025.9 | |
| 20260502053518 | 8 | 280 | 0.0 | 1.6 | 0.00 | 0.00 | 0.00 | 72 | 1025.8 |
| 20260502053016 | 8 | 0.0 | 0.0 | 0.00 | 0.00 | 0.00 | 73 | 1025.8 | |
| 20260502052535 | 8 | 0.0 | 0.0 | 0.00 | 0.00 | 0.00 | 73 | 1025.7 | |
| 20260502052033 | 8 | 0.0 | 0.0 | 0.00 | 0.00 | 0.00 | 73 | 1025.7 | |
| 20260502051531 | 7 | 198 | 0.0 | 1.6 | 0.00 | 0.00 | 0.00 | 73 | 1025.7 |
| 20260502051029 | 7 | 0.0 | 0.0 | 0.00 | 0.00 | 0.00 | 73 | 1025.8 | |
| 20260502050527 | 7 | 0.0 | 0.0 | 0.00 | 0.00 | 0.00 | 73 | 1025.8 | |
| 20260502050025 | 7 | 196 | 0.0 | 1.6 | 0.00 | 0.00 | 0.00 | 73 | 1025.8 |
| 20260502045523 | 7 | 0.0 | 0.0 | 0.00 | 0.00 | 0.00 | 74 | 1025.8 | |
| 20260502045022 | 6 | 0.0 | 0.0 | 0.00 | 0.00 | 0.00 | 73 | 1025.9 | |
| 20260502044519 | 6 | 0.0 | 0.0 | 0.00 | 0.00 | 0.00 | 72 | 1025.8 | |
| 20260502044018 | 6 | 181 | 0.0 | 3.2 | 0.00 | 0.00 | 0.00 | 72 | 1025.9 |
| 20260502043536 | 6 | 161 | 0.0 | 1.6 | 0.00 | 0.00 | 0.00 | 72 | 1025.9 |
| 20260502043033 | 6 | 0.0 | 0.0 | 0.00 | 0.00 | 0.00 | 73 | 1025.9 | |
| 20260502042531 | 6 | 0.0 | 0.0 | 0.00 | 0.00 | 0.00 | 73 | 1025.9 | |
| 20260502042029 | 6 | 0.0 | 0.0 | 0.00 | 0.00 | 0.00 | 73 | 1025.8 | |
| 20260502041527 | 6 | 0.0 | 0.0 | 0.00 | 0.00 | 0.00 | 72 | 1025.7 | |
| 20260502041025 | 5 | 0.0 | 0.0 | 0.00 | 0.00 | 0.00 | 72 | 1025.7 | |
| 20260502040523 | 5 | 0.0 | 0.0 | 0.00 | 0.00 | 0.00 | 72 | 1025.6 | |
| 20260502040021 | 5 | 0.0 | 0.0 | 0.00 | 0.00 | 0.00 | 73 | 1025.6 | |
| 20260502035519 | 5 | 0.0 | 0.0 | 0.00 | 0.00 | 0.00 | 72 | 1025.7 | |
| 20260502035048 | 5 | 0.0 | 0.0 | 0.00 | 0.00 | 0.00 | 71 | 1025.7 | |
| 20260502035017 | 5 | 0.0 | 0.0 | 0.00 | 0.00 | 0.00 | 71 | 1025.7 | |
| 20260502034535 | 5 | 0.0 | 0.0 | 0.00 | 0.00 | 0.00 | 71 | 1025.6 | |
| 20260502034034 | 5 | 0.0 | 0.0 | 0.00 | 0.00 | 0.00 | 71 | 1025.6 | |
| 20260502033532 | 5 | 0.0 | 0.0 | 0.00 | 0.00 | 0.00 | 71 | 1025.6 | |
| 20260502033030 | 5 | 0.0 | 0.0 | 0.00 | 0.00 | 0.00 | 70 | 1025.5 | |
| 20260502032527 | 5 | 0.0 | 0.0 | 0.00 | 0.00 | 0.00 | 70 | 1025.6 | |
| 20260502032025 | 5 | 0.0 | 0.0 | 0.00 | 0.00 | 0.00 | 70 | 1025.6 | |
| 20260502031523 | 5 | 0.0 | 0.0 | 0.00 | 0.00 | 0.00 | 69 | 1025.6 | |
| 20260502031022 | 6 | 0.0 | 0.0 | 0.00 | 0.00 | 0.00 | 69 | 1025.6 | |
| 20260502030520 | 6 | 0.0 | 0.0 | 0.00 | 0.00 | 0.00 | 69 | 1025.7 | |
| 20260502030049 | 6 | 0.0 | 0.0 | 0.00 | 0.00 | 0.00 | 69 | 1025.6 | |
| 20260502030017 | 6 | 0.0 | 0.0 | 0.00 | 0.00 | 0.00 | 69 | 1025.6 | |
| 20260502025535 | 6 | 0.0 | 0.0 | 0.00 | 0.00 | 0.00 | 69 | 1025.6 | |
| 20260502025034 | 6 | 0.0 | 0.0 | 0.00 | 0.00 | 0.00 | 68 | 1025.5 | |
| 20260502024532 | 6 | 0.0 | 0.0 | 0.00 | 0.00 | 0.00 | 68 | 1025.5 | |
| 20260502024030 | 6 | 0.0 | 0.0 | 0.00 | 0.00 | 0.00 | 68 | 1025.4 | |
| 20260502023528 | 6 | 0.0 | 0.0 | 0.00 | 0.00 | 0.00 | 68 | 1025.5 | |
| 20260502023026 | 6 | 0.0 | 0.0 | 0.00 | 0.00 | 0.00 | 68 | 1025.5 | |
| 20260502022524 | 6 | 0.0 | 0.0 | 0.00 | 0.00 | 0.00 | 68 | 1025.4 | |
| 20260502022022 | 6 | 0.0 | 0.0 | 0.00 | 0.00 | 0.00 | 68 | 1025.5 | |
| 20260502021521 | 6 | 0.0 | 0.0 | 0.00 | 0.00 | 0.00 | 68 | 1025.6 | |
| 20260502021019 | 6 | 0.0 | 0.0 | 0.00 | 0.00 | 0.00 | 68 | 1025.6 | |
| 20260502020517 | 6 | 0.0 | 0.0 | 0.00 | 0.00 | 0.00 | 68 | 1025.5 | |
| 20260502020035 | 6 | 0.0 | 0.0 | 0.00 | 0.00 | 0.00 | 67 | 1025.6 | |
| 20260502015533 | 6 | 0.0 | 0.0 | 0.00 | 0.00 | 0.00 | 67 | 1025.5 | |
| 20260502015031 | 6 | 0.0 | 0.0 | 0.00 | 0.00 | 0.00 | 67 | 1025.5 | |
| 20260502014529 | 7 | 0.0 | 0.0 | 0.00 | 0.00 | 0.00 | 67 | 1025.6 | |
| 20260502014028 | 7 | 0.0 | 0.0 | 0.00 | 0.00 | 0.00 | 67 | 1025.6 | |
| 20260502013525 | 7 | 0.0 | 0.0 | 0.00 | 0.00 | 0.00 | 67 | 1025.6 | |
| 20260502013035 | 7 | 0.0 | 0.0 | 0.00 | 0.00 | 0.00 | 67 | 1025.6 | |
| 20260502012522 | 7 | 0.0 | 0.0 | 0.00 | 0.00 | 0.00 | 66 | 1025.6 | |
| 20260502012020 | 7 | 0.0 | 0.0 | 0.00 | 0.00 | 0.00 | 67 | 1025.6 | |
| 20260502011518 | 7 | 0.0 | 0.0 | 0.00 | 0.00 | 0.00 | 67 | 1025.6 | |
| 20260502011050 | 7 | 0.0 | 0.0 | 0.00 | 0.00 | 0.00 | 67 | 1025.6 | |
| 20260502011017 | 7 | 0.0 | 0.0 | 0.00 | 0.00 | 0.00 | 67 | 1025.6 | |
| 20260502010534 | 7 | 0.0 | 0.0 | 0.00 | 0.00 | 0.00 | 66 | 1025.6 | |
| 20260502010033 | 7 | 0.0 | 0.0 | 0.00 | 0.00 | 0.00 | 66 | 1025.5 | |
| 20260502005531 | 7 | 0.0 | 0.0 | 0.00 | 0.00 | 0.00 | 67 | 1025.6 | |
| 20260502005029 | 7 | 0.0 | 0.0 | 0.00 | 0.00 | 0.00 | 67 | 1025.5 | |
| 20260502004527 | 7 | 0.0 | 0.0 | 0.00 | 0.00 | 0.00 | 66 | 1025.7 | |
| 20260502004025 | 7 | 0.0 | 0.0 | 0.00 | 0.00 | 0.00 | 66 | 1025.6 | |
| 20260502003523 | 7 | 0.0 | 0.0 | 0.00 | 0.00 | 0.00 | 65 | 1025.6 | |
| 20260502003021 | 7 | 0.0 | 0.0 | 0.00 | 0.00 | 0.00 | 65 | 1025.7 | |
| 20260502002520 | 7 | 0.0 | 0.0 | 0.00 | 0.00 | 0.00 | 65 | 1025.6 | |
| 20260502002049 | 8 | 0.0 | 0.0 | 0.00 | 0.00 | 0.00 | 65 | 1025.7 | |
| 20260502002017 | 8 | 0.0 | 0.0 | 0.00 | 0.00 | 0.00 | 65 | 1025.7 | |
| 20260502001515 | 8 | 0.0 | 0.0 | 0.00 | 0.00 | 0.00 | 65 | 1025.7 | |
| 20260502001035 | 8 | 0.0 | 0.0 | 0.00 | 0.00 | 0.00 | 65 | 1025.7 | |
| 20260502000532 | 8 | 0.0 | 0.0 | 0.00 | 0.00 | 0.00 | 65 | 1025.7 | |
| 20260502000030 | 8 | 0.0 | 0.0 | 0.00 | 0.00 | 0.00 | 65 | 1025.8 | |
| 20260501235528 | 8 | 0.0 | 0.0 | 0.00 | 0.00 | 0.00 | 65 | 1025.6 | |
| 20260501235026 | 8 | 0.0 | 0.0 | 0.00 | 0.00 | 0.00 | 65 | 1025.6 | |
| 20260501234524 | 8 | 0.0 | 0.0 | 0.00 | 0.00 | 0.00 | 65 | 1025.7 | |
| 20260501234022 | 8 | 0.0 | 0.0 | 0.00 | 0.00 | 0.00 | 64 | 1025.8 | |
| 20260501233521 | 8 | 0.0 | 0.0 | 0.00 | 0.00 | 0.00 | 63 | 1025.8 | |
| 20260501233019 | 8 | 0.0 | 0.0 | 0.00 | 0.00 | 0.00 | 63 | 1025.8 | |
| 20260501232517 | 8 | 0.0 | 0.0 | 0.00 | 0.00 | 0.00 | 63 | 1025.9 | |
| 20260501232035 | 8 | 0.0 | 0.0 | 0.00 | 0.00 | 0.00 | 63 | 1025.8 | |
| 20260501231533 | 8 | 0.0 | 0.0 | 0.00 | 0.00 | 0.00 | 62 | 1025.9 | |
| 20260501231032 | 9 | 0.0 | 0.0 | 0.00 | 0.00 | 0.00 | 62 | 1025.8 | |
| 20260501230529 | 9 | 0.0 | 0.0 | 0.00 | 0.00 | 0.00 | 62 | 1025.8 | |
| 20260501230028 | 9 | 0.0 | 0.0 | 0.00 | 0.00 | 0.00 | 62 | 1025.8 | |
| 20260501225525 | 9 | 0.0 | 0.0 | 0.00 | 0.00 | 0.00 | 62 | 1025.8 | |
| 20260501225024 | 9 | 0.0 | 0.0 | 0.00 | 0.00 | 0.00 | 61 | 1025.7 | |
| 20260501224521 | 9 | 0.0 | 0.0 | 0.00 | 0.00 | 0.00 | 61 | 1025.7 | |
| 20260501224020 | 10 | 0.0 | 0.0 | 0.00 | 0.00 | 0.00 | 61 | 1025.7 | |
| 20260501223517 | 10 | 0.0 | 0.0 | 0.00 | 0.00 | 0.00 | 60 | 1025.7 | |
| 20260501223015 | 10 | 0.0 | 0.0 | 0.00 | 0.00 | 0.00 | 60 | 1025.7 | |
| 20260501222534 | 10 | 0.0 | 0.0 | 0.00 | 0.00 | 0.00 | 60 | 1025.7 | |
| 20260501222032 | 10 | 0.0 | 0.0 | 0.00 | 0.00 | 0.00 | 60 | 1025.7 | |
| 20260501221530 | 10 | 0.0 | 0.0 | 0.00 | 0.00 | 0.00 | 59 | 1025.7 | |
| 20260501221028 | 10 | 0.0 | 0.0 | 0.00 | 0.00 | 0.00 | 58 | 1025.7 | |
| 20260501220526 | 11 | 0.0 | 0.0 | 0.00 | 0.00 | 0.00 | 58 | 1025.6 | |
| 20260501220024 | 11 | 0.0 | 0.0 | 0.00 | 0.00 | 0.00 | 58 | 1025.7 | |
| 20260501215523 | 11 | 0.0 | 0.0 | 0.00 | 0.00 | 0.00 | 58 | 1025.7 | |
| 20260501215021 | 11 | 0.0 | 0.0 | 0.00 | 0.00 | 0.00 | 57 | 1025.7 | |
| 20260501214519 | 11 | 0.0 | 0.0 | 0.00 | 0.00 | 0.00 | 57 | 1025.6 | |
| 20260501214017 | 11 | 0.0 | 0.0 | 0.00 | 0.00 | 0.00 | 56 | 1025.7 | |
| 20260501213535 | 11 | 0.0 | 0.0 | 0.00 | 0.00 | 0.00 | 56 | 1025.7 | |
| 20260501213033 | 11 | 0.0 | 0.0 | 0.00 | 0.00 | 0.00 | 56 | 1025.7 | |
| 20260501212532 | 12 | 0.0 | 0.0 | 0.00 | 0.00 | 0.00 | 55 | 1025.6 | |
| 20260501212030 | 12 | 0.0 | 0.0 | 0.00 | 0.00 | 0.00 | 55 | 1025.4 | |
| 20260501211527 | 12 | 0.0 | 0.0 | 0.00 | 0.00 | 0.00 | 55 | 1025.6 | |
| 20260501211025 | 12 | 0.0 | 0.0 | 0.00 | 0.00 | 0.00 | 55 | 1025.5 | |
| 20260501210523 | 12 | 101 | 1.6 | 3.2 | 0.00 | 0.00 | 0.00 | 54 | 1025.5 |
| 20260501210022 | 12 | 102 | 0.0 | 3.2 | 0.00 | 0.00 | 0.00 | 54 | 1025.5 |
| 20260501205519 | 12 | 100 | 1.6 | 3.2 | 0.00 | 0.00 | 0.00 | 53 | 1025.5 |
| 20260501205018 | 13 | 99 | 0.0 | 1.6 | 0.00 | 0.00 | 0.00 | 53 | 1025.4 |
| 20260501204516 | 13 | 99 | 1.6 | 3.2 | 0.00 | 0.00 | 0.00 | 53 | 1025.5 |
| 20260501204034 | 13 | 102 | 1.6 | 4.8 | 0.00 | 0.00 | 0.00 | 53 | 1025.5 |
| 20260501203532 | 13 | 110 | 0.0 | 1.6 | 0.00 | 0.00 | 0.00 | 52 | 1025.4 |
| 20260501203031 | 13 | 0.0 | 0.0 | 0.00 | 0.00 | 0.00 | 51 | 1025.4 | |
| 20260501202529 | 13 | 0.0 | 0.0 | 0.00 | 0.00 | 0.00 | 51 | 1025.4 | |
| 20260501202027 | 13 | 0.0 | 0.0 | 0.00 | 0.00 | 0.00 | 50 | 1025.3 | |
| 20260501201525 | 14 | 0.0 | 0.0 | 0.00 | 0.00 | 0.00 | 50 | 1025.4 | |
| 20260501201023 | 14 | 0.0 | 0.0 | 0.00 | 0.00 | 0.00 | 50 | 1025.3 | |
| 20260501200521 | 14 | 104 | 0.0 | 1.6 | 0.00 | 0.00 | 0.00 | 49 | 1025.3 |
| 20260501200019 | 14 | 101 | 1.6 | 3.2 | 0.00 | 0.00 | 0.00 | 49 | 1025.3 |
| 20260501195517 | 14 | 104 | 3.2 | 4.8 | 0.00 | 0.00 | 0.00 | 49 | 1025.3 |
| 20260501195016 | 15 | 108 | 3.2 | 4.8 | 0.00 | 0.00 | 0.00 | 49 | 1025.3 |
| 20260501194534 | 15 | 103 | 1.6 | 4.8 | 0.00 | 0.00 | 0.00 | 49 | 1025.2 |
| 20260501194033 | 15 | 108 | 3.2 | 6.4 | 0.00 | 0.00 | 0.00 | 49 | 1025.2 |
| 20260501193530 | 15 | 115 | 3.2 | 4.8 | 0.00 | 0.00 | 0.00 | 48 | 1025.2 |
| 20260501193029 | 15 | 107 | 3.2 | 4.8 | 0.00 | 0.00 | 0.00 | 47 | 1025.1 |
| 20260501192527 | 15 | 105 | 1.6 | 3.2 | 0.00 | 0.00 | 0.00 | 46 | 1025.1 |
| 20260501192025 | 15 | 0.0 | 0.0 | 0.00 | 0.00 | 0.00 | 46 | 1025.0 | |
| 20260501191523 | 15 | 0.0 | 0.0 | 0.00 | 0.00 | 0.00 | 46 | 1025.0 |